TimeCST,TemperatureF,Dew PointF,Humidity,Sea Level PressureIn,VisibilityMPH,Wind Direction,Wind SpeedMPH,Gust SpeedMPH,PrecipitationIn,Events,Conditions,WindDirDegrees,DateUTC
12:15 AM,50.0,35.6,58,29.89,10.0,South,26.5,34.5,N/A,,Scattered Clouds,170,2013-01-27 06:15:00
12:35 AM,50.0,35.6,58,29.91,10.0,South,15.0,31.1,N/A,,Scattered Clouds,190,2013-01-27 06:35:00
12:55 AM,50.0,37.4,62,29.91,10.0,WSW,9.2,-,N/A,,Scattered Clouds,240,2013-01-27 06:55:00
1:15 AM,48.2,37.4,66,29.91,10.0,West,6.9,-,N/A,,Clear,270,2013-01-27 07:15:00
1:35 AM,48.2,37.4,66,29.90,10.0,SSW,8.1,-,N/A,,Clear,200,2013-01-27 07:35:00
2:15 AM,48.2,37.4,66,29.89,10.0,SW,6.9,-,N/A,,Clear,230,2013-01-27 08:15:00
2:35 AM,44.6,37.4,76,29.88,10.0,SSW,9.2,-,N/A,,Clear,200,2013-01-27 08:35:00
2:55 AM,46.4,37.4,71,29.88,10.0,SW,8.1,-,N/A,,Clear,230,2013-01-27 08:55:00
3:15 AM,44.6,37.4,76,29.87,10.0,SW,6.9,-,N/A,,Clear,220,2013-01-27 09:15:00
3:35 AM,44.6,37.4,76,29.87,10.0,WSW,5.8,-,N/A,,Clear,250,2013-01-27 09:35:00
3:55 AM,44.6,39.2,81,29.86,10.0,SSW,8.1,-,N/A,,Clear,200,2013-01-27 09:55:00
4:15 AM,46.4,41.0,81,29.85,10.0,SSW,11.5,-,N/A,,Clear,200,2013-01-27 10:15:00
4:35 AM,46.4,41.0,81,29.84,10.0,SSW,11.5,-,N/A,,Clear,200,2013-01-27 10:35:00
4:55 AM,46.4,41.0,81,29.84,10.0,SSW,8.1,-,N/A,,Clear,210,2013-01-27 10:55:00
5:15 AM,46.4,41.0,81,29.84,10.0,SSW,8.1,-,N/A,,Clear,210,2013-01-27 11:15:00
5:35 AM,46.4,42.8,87,29.84,10.0,WSW,5.8,-,N/A,,Clear,240,2013-01-27 11:35:00
5:55 AM,44.6,41.0,87,29.83,10.0,SW,5.8,-,N/A,,Clear,230,2013-01-27 11:55:00
6:15 AM,44.6,42.8,93,29.83,10.0,SSW,8.1,-,N/A,,Clear,200,2013-01-27 12:15:00
6:35 AM,44.6,42.8,93,29.84,10.0,WSW,3.5,-,N/A,,Clear,250,2013-01-27 12:35:00
6:55 AM,46.4,44.6,93,29.83,10.0,SW,9.2,16.1,N/A,,Clear,220,2013-01-27 12:55:00
7:15 AM,50.0,46.4,87,29.83,10.0,SSW,16.1,-,N/A,,Scattered Clouds,200,2013-01-27 13:15:00
7:35 AM,50.0,46.4,87,29.84,10.0,SSW,16.1,-,N/A,,Scattered Clouds,200,2013-01-27 13:35:00
7:55 AM,50.0,46.4,87,29.83,10.0,SSW,13.8,-,N/A,,Scattered Clouds,210,2013-01-27 13:55:00
8:15 AM,50.0,46.4,87,29.83,10.0,SSW,15.0,20.7,N/A,,Scattered Clouds,210,2013-01-27 14:15:00
8:35 AM,50.0,46.4,87,29.83,10.0,SSW,12.7,-,N/A,,Scattered Clouds,210,2013-01-27 14:35:00
8:55 AM,51.8,46.4,82,29.82,10.0,SSW,18.4,-,N/A,,Scattered Clouds,210,2013-01-27 14:55:00
9:15 AM,55.4,46.4,72,29.83,10.0,SW,16.1,20.7,N/A,,Clear,220,2013-01-27 15:15:00
9:35 AM,59.0,44.6,59,29.83,10.0,SW,17.3,27.6,N/A,,Clear,220,2013-01-27 15:35:00
9:55 AM,59.0,42.8,55,29.82,10.0,SW,23.0,32.2,N/A,,Scattered Clouds,220,2013-01-27 15:55:00
10:15 AM,60.8,42.8,52,29.82,10.0,SW,27.6,33.4,N/A,,Clear,220,2013-01-27 16:15:00
10:35 AM,60.8,42.8,52,29.83,10.0,SW,19.6,29.9,N/A,,Clear,220,2013-01-27 16:35:00
11:15 AM,66.2,37.4,35,29.82,10.0,SW,24.2,32.2,N/A,,Clear,230,2013-01-27 17:15:00
11:35 AM,68.0,35.6,30,29.81,10.0,SW,28.8,39.1,N/A,,Clear,230,2013-01-27 17:35:00
11:55 AM,68.0,35.6,30,29.80,10.0,SW,28.8,35.7,N/A,,Clear,230,2013-01-27 17:55:00
12:15 PM,69.8,35.6,28,29.79,10.0,WSW,27.6,38.0,N/A,,Clear,240,2013-01-27 18:15:00
12:35 PM,69.8,35.6,28,29.77,10.0,SW,25.3,35.7,N/A,,Clear,230,2013-01-27 18:35:00
12:55 PM,71.6,33.8,25,29.76,10.0,SW,33.4,42.6,N/A,,Clear,230,2013-01-27 18:55:00
1:15 PM,71.6,33.8,25,29.75,10.0,SW,29.9,42.6,N/A,,Clear,230,2013-01-27 19:15:00
1:35 PM,73.4,33.8,23,29.75,10.0,WSW,27.6,34.5,N/A,,Clear,240,2013-01-27 19:35:00
1:55 PM,73.4,33.8,23,29.74,10.0,SW,28.8,36.8,N/A,,Clear,220,2013-01-27 19:55:00
2:15 PM,73.4,33.8,23,29.73,10.0,WSW,26.5,39.1,N/A,,Clear,240,2013-01-27 20:15:00
2:35 PM,73.4,33.8,23,29.73,10.0,WSW,28.8,35.7,N/A,,Clear,240,2013-01-27 20:35:00
2:55 PM,73.4,32.0,22,29.73,10.0,SW,25.3,35.7,N/A,,Clear,230,2013-01-27 20:55:00
3:15 PM,75.2,32.0,21,29.73,10.0,WSW,19.6,29.9,N/A,,Clear,240,2013-01-27 21:15:00
3:35 PM,73.4,32.0,22,29.73,10.0,WSW,23.0,33.4,N/A,,Clear,240,2013-01-27 21:35:00
3:55 PM,73.4,32.0,22,29.73,10.0,WSW,25.3,33.4,N/A,,Clear,250,2013-01-27 21:55:00
4:15 PM,73.4,32.0,22,29.73,10.0,WSW,18.4,29.9,N/A,,Clear,240,2013-01-27 22:15:00
4:35 PM,73.4,32.0,22,29.73,10.0,WSW,21.9,27.6,N/A,,Clear,240,2013-01-27 22:35:00
4:55 PM,73.4,32.0,22,29.73,10.0,SW,20.7,29.9,N/A,,Clear,230,2013-01-27 22:55:00
5:15 PM,73.4,32.0,22,29.73,10.0,SW,23.0,28.8,N/A,,Clear,220,2013-01-27 23:15:00
5:35 PM,71.6,32.0,23,29.74,10.0,SW,18.4,25.3,N/A,,Clear,230,2013-01-27 23:35:00
5:55 PM,69.8,32.0,25,29.75,10.0,SW,15.0,18.4,N/A,,Clear,230,2013-01-27 23:55:00
6:15 PM,68.0,32.0,26,29.75,10.0,SW,12.7,-,N/A,,Clear,220,2013-01-28 00:15:00
6:35 PM,62.6,32.0,32,29.75,10.0,SW,11.5,-,N/A,,Clear,220,2013-01-28 00:35:00
6:55 PM,62.6,32.0,32,29.76,10.0,SW,11.5,-,N/A,,Clear,220,2013-01-28 00:55:00
7:15 PM,60.8,32.0,34,29.78,10.0,SSW,11.5,-,N/A,,Clear,210,2013-01-28 01:15:00
7:35 PM,59.0,32.0,36,29.79,10.0,SSW,9.2,-,N/A,,Clear,210,2013-01-28 01:35:00
7:55 PM,55.4,32.0,41,29.79,10.0,SSW,11.5,-,N/A,,Clear,210,2013-01-28 01:55:00
8:15 PM,57.2,32.0,38,29.80,10.0,SW,12.7,-,N/A,,Clear,220,2013-01-28 02:15:00
8:35 PM,57.2,32.0,38,29.80,10.0,SSW,12.7,-,N/A,,Clear,210,2013-01-28 02:35:00
8:55 PM,57.2,32.0,38,29.80,10.0,SW,13.8,-,N/A,,Clear,220,2013-01-28 02:55:00
9:15 PM,55.4,32.0,41,29.80,10.0,SSW,13.8,-,N/A,,Clear,210,2013-01-28 03:15:00
9:35 PM,55.4,32.0,41,29.81,10.0,SW,12.7,-,N/A,,Clear,220,2013-01-28 03:35:00
9:55 PM,55.4,32.0,41,29.81,10.0,SSW,13.8,-,N/A,,Clear,210,2013-01-28 03:55:00
10:15 PM,55.4,32.0,41,29.81,10.0,SSW,17.3,-,N/A,,Clear,210,2013-01-28 04:15:00
10:35 PM,55.4,32.0,41,29.81,10.0,SSW,15.0,-,N/A,,Clear,210,2013-01-28 04:35:00
10:55 PM,53.6,32.0,44,29.81,10.0,SSW,13.8,-,N/A,,Clear,210,2013-01-28 04:55:00
11:15 PM,53.6,32.0,44,29.82,10.0,SW,13.8,-,N/A,,Clear,220,2013-01-28 05:15:00
11:35 PM,53.6,32.0,44,29.82,10.0,SSW,13.8,19.6,N/A,,Clear,210,2013-01-28 05:35:00
11:55 PM,53.6,32.0,44,29.82,10.0,SSW,12.7,-,N/A,,Clear,210,2013-01-28 05:55:00